Main page
METAR-TAF:

METAR-TAF

Airports :

Cascavel Airport

Cascavel, Paraná, Brazil

latitude: 25-00-08S, longitude: 53-30-07W, elevation: 754 m

Current weather observation

The report was made 55 minutes ago, at 07:00 UTC
Calm wind
Temperature 19°C
Humidity 94%
Pressure 1018 hPa
Visibility 10 km or more
no clouds below 1500 m and no cumulonimbus

METAR: SBCA 240700Z 00000KT CAVOK 19/18 Q1018

Time: 04:55 (07:55 UTC)


TAF: missing

Weather observations and forecasts of more than 4000 airports (METAR and TAF reports).

The available stations are represented by yellow and red dots on the map.

Hover mouse over dot to see the name of the station.

Then click to see weather observations and forecasts.

To change the map : click on the green buttons with a black cross to zoom in, on the green button with a dash to zoom out, or on the green arrows for adjacent maps.


METAR-TAF: